Radiation Dose at Monitoring Post of Fukushima Daini Nuclear Power Station
Date,Time,MP-1(microSv/h),MP-2(microSv/h),MP-3(microSv/h),MP-4(microSv/h),MP-5(microSv/h),MP-6(microSv/h),MP-7(microSv/h),Wind Direction,Wind Velocity(m/s),Rain
2020/02/01,00:00,0.179,0.162,0.272,0.253,0.252,0.138,0.085,northwest,2.1,No
2020/02/01,00:10,0.180,0.162,0.274,0.252,0.253,0.138,0.085,west-northwest,2.6,No
2020/02/01,00:20,0.180,0.162,0.274,0.252,0.251,0.138,0.085,northwest,1.8,No
2020/02/01,00:30,0.179,0.161,0.271,0.252,0.251,0.138,0.084,north,3.1,No
2020/02/01,00:40,0.180,0.160,0.273,0.253,0.251,0.137,0.086,northwest,3.7,No
2020/02/01,00:50,0.179,0.161,0.271,0.253,0.251,0.138,0.085,north-northwest,5.4,No
2020/02/01,01:00,0.179,0.161,0.274,0.252,0.251,0.138,0.085,north-northwest,5.2,No
2020/02/01,01:10,0.179,0.160,0.272,0.254,0.251,0.137,0.085,north-northwest,4.9,No
2020/02/01,01:20,0.179,0.160,0.271,0.253,0.250,0.139,0.085,northwest,5.4,No
2020/02/01,01:30,0.180,0.161,0.272,0.253,0.250,0.137,0.084,northwest,4.8,No
2020/02/01,01:40,0.179,0.161,0.272,0.253,0.250,0.138,0.085,west-northwest,4.4,No
2020/02/01,01:50,0.180,0.162,0.272,0.252,0.250,0.137,0.085,northwest,4.6,No
2020/02/01,02:00,0.179,0.162,0.272,0.253,0.251,0.137,0.085,northwest,5.4,No
2020/02/01,02:10,0.179,0.162,0.273,0.253,0.251,0.138,0.084,northwest,4.6,No
2020/02/01,02:20,0.178,0.162,0.271,0.253,0.250,0.138,0.085,northwest,5.5,No
2020/02/01,02:30,0.180,0.161,0.273,0.253,0.251,0.137,0.086,west-northwest,6.4,No
2020/02/01,02:40,0.179,0.162,0.271,0.253,0.251,0.138,0.085,west-northwest,6.8,No
2020/02/01,02:50,0.179,0.162,0.271,0.254,0.252,0.138,0.084,west-northwest,5.0,No
2020/02/01,03:00,0.179,0.162,0.273,0.252,0.251,0.137,0.085,northwest,4.5,No
2020/02/01,03:10,0.180,0.161,0.272,0.253,0.251,0.138,0.085,west-northwest,5.7,No
2020/02/01,03:20,0.180,0.161,0.272,0.253,0.251,0.137,0.085,northwest,4.4,No
2020/02/01,03:30,0.180,0.161,0.272,0.253,0.250,0.137,0.085,northwest,2.9,No
2020/02/01,03:40,0.179,0.161,0.272,0.253,0.252,0.137,0.085,west-northwest,3.4,No
2020/02/01,03:50,0.179,0.161,0.273,0.253,0.252,0.138,0.085,northwest,2.4,No
2020/02/01,04:00,0.180,0.161,0.273,0.253,0.251,0.138,0.085,northwest,2.1,No
2020/02/01,04:10,0.180,0.161,0.272,0.253,0.251,0.138,0.085,north-northwest,0.9,No
2020/02/01,04:20,0.179,0.161,0.271,0.253,0.251,0.138,0.085,-,CALM,No
2020/02/01,04:30,0.179,0.161,0.271,0.253,0.251,0.137,0.085,north-northwest,0.8,No
2020/02/01,04:40,0.178,0.162,0.272,0.252,0.250,0.138,0.085,northeast,1.4,No
2020/02/01,04:50,0.180,0.161,0.271,0.253,0.251,0.137,0.085,north,1.3,No
2020/02/01,05:00,0.180,0.160,0.271,0.253,0.251,0.137,0.084,northwest,2.3,No
2020/02/01,05:10,0.180,0.163,0.272,0.252,0.251,0.138,0.084,northwest,4.2,No
2020/02/01,05:20,0.179,0.161,0.271,0.251,0.251,0.137,0.085,northwest,4.0,No
2020/02/01,05:30,0.179,0.161,0.272,0.253,0.251,0.137,0.084,northwest,4.4,No
2020/02/01,05:40,0.180,0.161,0.271,0.252,0.251,0.137,0.086,northwest,5.4,No
2020/02/01,05:50,0.178,0.161,0.272,0.252,0.251,0.138,0.084,northwest,5.5,No
2020/02/01,06:00,0.179,0.161,0.272,0.252,0.252,0.137,0.085,northwest,6.0,No
2020/02/01,06:10,0.180,0.161,0.274,0.252,0.252,0.138,0.085,northwest,5.9,No
2020/02/01,06:20,0.179,0.161,0.272,0.252,0.251,0.138,0.085,northwest,3.9,No
2020/02/01,06:30,0.180,0.161,0.272,0.253,0.250,0.137,0.084,northwest,4.1,No
2020/02/01,06:40,0.179,0.162,0.271,0.253,0.250,0.138,0.084,north-northwest,4.4,No
2020/02/01,06:50,0.180,0.162,0.271,0.252,0.251,0.138,0.085,north-northwest,4.4,No
2020/02/01,07:00,0.179,0.162,0.271,0.252,0.251,0.138,0.085,north-northwest,3.8,No
2020/02/01,07:10,0.178,0.161,0.273,0.252,0.250,0.138,0.085,north-northwest,4.0,No
2020/02/01,07:20,0.180,0.161,0.271,0.252,0.251,0.138,0.085,north-northwest,3.7,No
2020/02/01,07:30,0.179,0.161,0.272,0.253,0.251,0.138,0.085,north-northwest,3.6,No
2020/02/01,07:40,0.180,0.161,0.273,0.253,0.251,0.137,0.085,north-northwest,3.9,No
2020/02/01,07:50,0.179,0.162,0.272,0.252,0.250,0.137,0.085,north-northwest,3.3,No
2020/02/01,08:00,0.180,0.161,0.272,0.251,0.251,0.137,0.084,north-northwest,3.7,No
2020/02/01,08:10,0.180,0.161,0.272,0.252,0.251,0.138,0.084,north-northwest,2.7,No
2020/02/01,08:20,0.179,0.161,0.271,0.251,0.251,0.137,0.084,north-northwest,3.1,No
2020/02/01,08:30,0.179,0.162,0.272,0.251,0.251,0.138,0.085,north,1.9,No
2020/02/01,08:40,0.178,0.161,0.273,0.253,0.250,0.138,0.085,north,3.1,No
2020/02/01,08:50,0.180,0.161,0.271,0.253,0.251,0.137,0.085,north,2.4,No
2020/02/01,09:00,0.180,0.161,0.270,0.252,0.251,0.138,0.085,north,1.8,No
2020/02/01,09:10,0.179,0.163,0.271,0.252,0.251,0.138,0.086,-,CALM,No
2020/02/01,09:20,0.179,0.161,0.272,0.252,0.251,0.138,0.085,west,2.0,No
2020/02/01,09:30,0.180,0.161,0.271,0.251,0.251,0.138,0.085,west,4.3,No
2020/02/01,09:40,0.180,0.161,0.271,0.251,0.250,0.137,0.085,west-northwest,5.2,No
2020/02/01,09:50,0.179,0.160,0.273,0.250,0.250,0.138,0.085,west,4.2,No
2020/02/01,10:00,0.179,0.160,0.272,0.252,0.251,0.138,0.085,west-northwest,3.8,No
2020/02/01,10:10,0.179,0.161,0.271,0.251,0.251,0.138,0.084,northwest,4.8,No
2020/02/01,10:20,0.179,0.161,0.271,0.253,0.251,0.138,0.085,west-northwest,3.3,No
2020/02/01,10:30,0.178,0.161,0.272,0.250,0.252,0.138,0.085,west-northwest,5.1,No
2020/02/01,10:40,0.178,0.161,0.271,0.252,0.251,0.138,0.085,west-northwest,5.0,No
2020/02/01,10:50,0.179,0.161,0.271,0.252,0.251,0.138,0.085,west-northwest,4.1,No
2020/02/01,11:00,0.178,0.161,0.273,0.252,0.250,0.138,0.084,west-northwest,4.7,No
2020/02/01,11:10,0.178,0.161,0.271,0.252,0.253,0.138,0.085,west-northwest,6.5,No
2020/02/01,11:20,0.180,0.161,0.271,0.253,0.250,0.138,0.084,west-northwest,6.6,No
2020/02/01,11:30,0.179,0.161,0.272,0.251,0.251,0.137,0.085,west-northwest,6.3,No
2020/02/01,11:40,0.180,0.162,0.272,0.252,0.251,0.138,0.085,west-northwest,6.5,No
2020/02/01,11:50,0.177,0.161,0.271,0.252,0.252,0.138,0.085,west-northwest,5.8,No
2020/02/01,12:00,0.179,0.160,0.271,0.252,0.251,0.138,0.085,west-northwest,5.3,No
2020/02/01,12:10,0.178,0.161,0.270,0.252,0.252,0.137,0.084,west-northwest,4.4,No
2020/02/01,12:20,0.179,0.161,0.271,0.252,0.250,0.137,0.084,west-northwest,5.5,No
2020/02/01,12:30,0.179,0.161,0.271,0.251,0.252,0.137,0.084,west-northwest,5.8,No
2020/02/01,12:40,0.178,0.162,0.271,0.252,0.251,0.138,0.085,west,6.5,No
2020/02/01,12:50,0.179,0.160,0.272,0.252,0.251,0.138,0.085,west-northwest,6.5,No
2020/02/01,13:00,0.180,0.162,0.270,0.253,0.250,0.139,0.085,west-northwest,3.6,No
2020/02/01,13:10,0.178,0.161,0.270,0.250,0.252,0.138,0.084,west-northwest,4.6,No
2020/02/01,13:20,0.180,0.161,0.270,0.253,0.249,0.137,0.085,west-northwest,5.1,No
2020/02/01,13:30,0.178,0.161,0.272,0.252,0.253,0.138,0.084,west-northwest,6.7,No
2020/02/01,13:40,0.179,0.161,0.271,0.251,0.249,0.137,0.085,west-northwest,5.5,No
2020/02/01,13:50,0.180,0.160,0.272,0.252,0.251,0.137,0.084,west-northwest,6.6,No
2020/02/01,14:00,0.180,0.161,0.271,0.252,0.250,0.137,0.085,west-northwest,5.8,No
2020/02/01,14:10,0.180,0.162,0.273,0.252,0.253,0.137,0.084,northwest,4.5,No
2020/02/01,14:20,0.179,0.161,0.274,0.253,0.252,0.137,0.085,northwest,4.7,No
2020/02/01,14:30,0.180,0.162,0.271,0.253,0.253,0.139,0.084,west-northwest,2.4,No
2020/02/01,14:40,0.179,0.163,0.272,0.254,0.252,0.138,0.085,west-northwest,2.5,No
2020/02/01,14:50,0.180,0.162,0.274,0.253,0.252,0.138,0.085,west-northwest,5.1,No
2020/02/01,15:00,0.180,0.161,0.271,0.254,0.253,0.137,0.085,west-northwest,6.8,No
2020/02/01,15:10,0.178,0.162,0.271,0.253,0.252,0.138,0.084,west-northwest,4.7,No
2020/02/01,15:20,0.179,0.162,0.272,0.253,0.253,0.136,0.085,northwest,2.9,No
2020/02/01,15:30,0.181,0.161,0.273,0.254,0.251,0.138,0.085,west-northwest,3.7,No
2020/02/01,15:40,0.180,0.163,0.270,0.253,0.252,0.136,0.085,west,4.7,No
2020/02/01,15:50,0.179,0.161,0.272,0.253,0.252,0.139,0.085,west-northwest,4.8,No
2020/02/01,16:00,0.179,0.161,0.271,0.254,0.250,0.137,0.084,northwest,3.0,No
2020/02/01,16:10,0.179,0.162,0.272,0.253,0.253,0.137,0.085,north-northwest,2.0,No
2020/02/01,16:20,0.180,0.162,0.274,0.253,0.253,0.138,0.085,west,1.5,No
2020/02/01,16:30,0.180,0.162,0.272,0.254,0.251,0.138,0.084,west-northwest,1.9,No
2020/02/01,16:40,0.179,0.163,0.272,0.254,0.253,0.139,0.084,northwest,2.7,No
2020/02/01,16:50,0.180,0.161,0.273,0.253,0.252,0.139,0.085,northwest,3.2,No
2020/02/01,17:00,0.180,0.162,0.272,0.253,0.252,0.139,0.085,northwest,3.5,No
2020/02/01,17:10,0.180,0.163,0.273,0.254,0.251,0.138,0.084,northwest,2.7,No
2020/02/01,17:20,0.179,0.163,0.273,0.254,0.252,0.138,0.084,west-northwest,2.2,No
2020/02/01,17:30,0.180,0.162,0.273,0.253,0.252,0.139,0.085,west,5.4,No
2020/02/01,17:40,0.180,0.163,0.271,0.254,0.252,0.138,0.085,west-northwest,6.9,No
2020/02/01,17:50,0.180,0.163,0.272,0.255,0.251,0.138,0.085,west,7.1,No
2020/02/01,18:00,0.180,0.162,0.273,0.253,0.252,0.138,0.084,west,8.1,No
2020/02/01,18:10,0.181,0.161,0.272,0.254,0.251,0.138,0.084,west-northwest,6.7,No
2020/02/01,18:20,0.180,0.161,0.273,0.253,0.252,0.138,0.085,west-northwest,6.0,No
2020/02/01,18:30,0.180,0.162,0.272,0.253,0.251,0.139,0.084,west-northwest,4.7,No
2020/02/01,18:40,0.180,0.162,0.273,0.253,0.251,0.138,0.084,west-northwest,4.3,No
2020/02/01,18:50,0.180,0.162,0.271,0.253,0.252,0.138,0.085,west-northwest,4.0,No
2020/02/01,19:00,0.180,0.162,0.272,0.255,0.253,0.137,0.085,west,3.2,No
2020/02/01,19:10,0.180,0.162,0.273,0.254,0.252,0.138,0.084,west-northwest,3.7,No
2020/02/01,19:20,0.180,0.162,0.272,0.253,0.251,0.138,0.084,west-northwest,4.3,No
2020/02/01,19:30,0.180,0.162,0.273,0.253,0.252,0.138,0.085,west-northwest,4.7,No
2020/02/01,19:40,0.179,0.161,0.272,0.254,0.251,0.137,0.085,west,4.5,No
2020/02/01,19:50,0.180,0.162,0.273,0.254,0.252,0.138,0.085,west,4.1,No
2020/02/01,20:00,0.180,0.162,0.273,0.252,0.251,0.137,0.085,west,3.9,No
2020/02/01,20:10,0.180,0.161,0.272,0.254,0.251,0.138,0.085,west-southwest,3.2,No
2020/02/01,20:20,0.178,0.162,0.271,0.254,0.252,0.138,0.086,west-southwest,2.7,No
2020/02/01,20:30,0.179,0.162,0.271,0.253,0.251,0.138,0.085,west-southwest,3.4,No
2020/02/01,20:40,0.180,0.161,0.273,0.254,0.252,0.138,0.084,west,4.0,No
2020/02/01,20:50,0.180,0.161,0.273,0.255,0.252,0.138,0.085,west-southwest,2.4,No
2020/02/01,21:00,0.179,0.161,0.272,0.254,0.252,0.138,0.085,west-southwest,2.1,No
2020/02/01,21:10,0.180,0.161,0.271,0.253,0.251,0.138,0.084,west-southwest,2.1,No
2020/02/01,21:20,0.180,0.162,0.274,0.254,0.251,0.138,0.084,west-northwest,1.7,No
2020/02/01,21:30,0.179,0.161,0.272,0.253,0.250,0.138,0.085,west-northwest,2.2,No
2020/02/01,21:40,0.180,0.161,0.272,0.253,0.252,0.137,0.085,west,1.8,No
2020/02/01,21:50,0.181,0.161,0.272,0.254,0.251,0.139,0.085,west-southwest,2.5,No
2020/02/01,22:00,0.179,0.162,0.272,0.254,0.252,0.138,0.085,west,2.4,No
2020/02/01,22:10,0.180,0.162,0.273,0.253,0.251,0.138,0.086,west-northwest,3.0,No
2020/02/01,22:20,0.180,0.162,0.274,0.253,0.251,0.138,0.086,west-northwest,2.7,No
2020/02/01,22:30,0.180,0.162,0.272,0.253,0.250,0.138,0.085,west-northwest,3.7,No
2020/02/01,22:40,0.180,0.162,0.273,0.253,0.253,0.138,0.085,west-northwest,2.8,No
2020/02/01,22:50,0.180,0.163,0.273,0.253,0.252,0.139,0.085,west,3.9,No
2020/02/01,23:00,0.180,0.163,0.271,0.253,0.251,0.138,0.085,west-northwest,4.9,No
2020/02/01,23:10,0.179,0.162,0.272,0.253,0.251,0.139,0.085,west-northwest,5.5,No
2020/02/01,23:20,0.179,0.162,0.272,0.254,0.252,0.138,0.085,west-northwest,3.5,No
2020/02/01,23:30,0.179,0.162,0.272,0.253,0.252,0.138,0.085,west-northwest,2.8,No
2020/02/01,23:40,0.179,0.162,0.272,0.254,0.251,0.138,0.086,west-northwest,3.1,No
2020/02/01,23:50,0.180,0.163,0.273,0.255,0.252,0.138,0.085,northwest,4.5,No
